contact:dominique.lefevre@mio.osupytheas.fr, maurice.libes@osupytheas.fr, didier.mallarino@osupytheas.fr
Project:EMSO http://www.emso-fr.org/EMSO-France
Depth: 2436.0 m
Title:EMSO Ligure Ouest : Data MII capteur MICROCAT
DateTime_Computer,Latitude,Longitude,Temperature,Conductivity,Pressure,DateTime_Instrument
DateTime_Computer,Latitude,Longitude,degC,S m-1,dbar,DateTime_Instrument
2020-05-19T00:02:55Z,42.805,6.029,13.2973,4.59974,2469.97,2020-5-19T02:03:37Z
2020-05-19T00:05:58Z,42.805,6.029,13.2973,4.59978,2469.97,2020-5-19T02:06:40Z
2020-05-19T00:09:01Z,42.805,6.029,13.2967,4.59974,2469.984,2020-5-19T02:09:43Z
2020-05-19T00:12:04Z,42.805,6.029,13.2967,4.59972,2469.947,2020-5-19T02:12:46Z
2020-05-19T00:15:07Z,42.805,6.029,13.2970,4.59972,2469.947,2020-5-19T02:15:50Z
2020-05-19T00:18:11Z,42.805,6.029,13.2971,4.59974,2469.97,2020-5-19T02:18:53Z
2020-05-19T00:21:14Z,42.805,6.029,13.2971,4.59972,2469.97,2020-5-19T02:21:56Z
2020-05-19T00:24:17Z,42.805,6.029,13.2970,4.59975,2469.947,2020-5-19T02:24:59Z
2020-05-19T00:27:20Z,42.805,6.029,13.2971,4.59976,2469.97,2020-5-19T02:28:03Z
2020-05-19T00:30:24Z,42.805,6.029,13.2969,4.59972,2469.947,2020-5-19T02:31:06Z
2020-05-19T00:33:27Z,42.805,6.029,13.2971,4.59971,2469.96,2020-5-19T02:34:09Z
2020-05-19T00:36:30Z,42.805,6.029,13.2970,4.59972,2469.947,2020-5-19T02:37:13Z
2020-05-19T00:39:34Z,42.805,6.029,13.2968,4.59972,2470.007,2020-5-19T02:40:16Z
2020-05-19T00:42:37Z,42.805,6.029,13.2972,4.59973,2469.993,2020-5-19T02:43:19Z
2020-05-19T00:45:40Z,42.805,6.029,13.2967,4.59974,2469.947,2020-5-19T02:46:22Z
2020-05-19T00:48:43Z,42.805,6.029,13.2972,4.59974,2469.97,2020-5-19T02:49:26Z
2020-05-19T00:51:47Z,42.805,6.029,13.2971,4.59973,2470.007,2020-5-19T02:52:29Z
2020-05-19T00:54:50Z,42.805,6.029,13.2971,4.59976,2470.007,2020-5-19T02:55:32Z
2020-05-19T00:57:53Z,42.805,6.029,13.2971,4.59974,2469.97,2020-5-19T02:58:35Z
2020-05-19T01:00:56Z,42.805,6.029,13.2978,4.59973,2469.993,2020-5-19T03:01:39Z
2020-05-19T01:04:00Z,42.805,6.029,13.2972,4.59973,2470.007,2020-5-19T03:04:42Z
2020-05-19T01:07:03Z,42.805,6.029,13.2979,4.59976,2469.984,2020-5-19T03:07:45Z
2020-05-19T01:10:06Z,42.805,6.029,13.2974,4.59979,2469.97,2020-5-19T03:10:49Z
2020-05-19T01:13:10Z,42.805,6.029,13.2971,4.59976,2469.993,2020-5-19T03:13:52Z
2020-05-19T01:16:13Z,42.805,6.029,13.2980,4.59985,2469.993,2020-5-19T03:16:55Z
2020-05-19T01:19:16Z,42.805,6.029,13.2975,4.59991,2469.993,2020-5-19T03:19:58Z
2020-05-19T01:22:19Z,42.805,6.029,13.2974,4.59973,2469.993,2020-5-19T03:23:02Z
2020-05-19T01:25:23Z,42.805,6.029,13.2969,4.59974,2470.017,2020-5-19T03:26:05Z
2020-05-19T01:28:26Z,42.805,6.029,13.2974,4.59974,2469.993,2020-5-19T03:29:08Z
2020-05-19T01:31:29Z,42.805,6.029,13.2971,4.59981,2470.017,2020-5-19T03:32:11Z
2020-05-19T01:34:32Z,42.805,6.029,13.2970,4.59973,2470.007,2020-5-19T03:35:15Z
2020-05-19T01:37:36Z,42.805,6.029,13.2971,4.59976,2469.97,2020-5-19T03:38:18Z
2020-05-19T01:40:39Z,42.805,6.029,13.2973,4.59973,2470.03,2020-5-19T03:41:21Z
2020-05-19T01:43:42Z,42.805,6.029,13.2976,4.59972,2469.993,2020-5-19T03:44:24Z
2020-05-19T01:46:45Z,42.805,6.029,13.2973,4.59972,2470.017,2020-5-19T03:47:28Z
2020-05-19T01:49:49Z,42.805,6.029,13.2969,4.59978,2469.993,2020-5-19T03:50:31Z
2020-05-19T01:52:52Z,42.805,6.029,13.2968,4.59973,2470.017,2020-5-19T03:53:34Z
2020-05-19T01:55:55Z,42.805,6.029,13.2973,4.59972,2470.017,2020-5-19T03:56:37Z
2020-05-19T01:58:59Z,42.805,6.029,13.2975,4.59974,2470.017,2020-5-19T03:59:41Z
2020-05-19T02:02:02Z,42.805,6.029,13.2973,4.59973,2470.017,2020-5-19T04:02:44Z
2020-05-19T02:05:05Z,42.805,6.029,13.2968,4.59976,2470.03,2020-5-19T04:05:47Z
2020-05-19T02:08:08Z,42.805,6.029,13.2972,4.59978,2470.017,2020-5-19T04:08:51Z
2020-05-19T02:11:12Z,42.805,6.029,13.2971,4.59973,2470.04,2020-5-19T04:11:54Z
2020-05-19T02:14:15Z,42.805,6.029,13.2976,4.59971,2470.04,2020-5-19T04:14:57Z
2020-05-19T02:17:18Z,42.805,6.029,13.2974,4.59972,2470.04,2020-5-19T04:18:00Z
2020-05-19T02:20:21Z,42.805,6.029,13.2968,4.59972,2470.077,2020-5-19T04:21:04Z
2020-05-19T02:23:25Z,42.805,6.029,13.2972,4.59974,2470.017,2020-5-19T04:24:07Z
2020-05-19T02:26:28Z,42.805,6.029,13.2973,4.59974,2470.063,2020-5-19T04:27:10Z
2020-05-19T02:29:31Z,42.805,6.029,13.2971,4.59973,2470.053,2020-5-19T04:30:13Z
2020-05-19T02:32:34Z,42.805,6.029,13.2974,4.59971,2470.04,2020-5-19T04:33:16Z
2020-05-19T02:35:38Z,42.805,6.029,13.2968,4.59972,2470.03,2020-5-19T04:36:20Z
2020-05-19T02:38:41Z,42.805,6.029,13.2971,4.59973,2470.077,2020-5-19T04:39:23Z
2020-05-19T02:41:44Z,42.805,6.029,13.2969,4.59973,2470.04,2020-5-19T04:42:26Z
2020-05-19T02:44:47Z,42.805,6.029,13.2967,4.59971,2470.077,2020-5-19T04:45:30Z
2020-05-19T02:47:51Z,42.805,6.029,13.2971,4.59973,2470.087,2020-5-19T04:48:33Z
2020-05-19T02:50:54Z,42.805,6.029,13.2968,4.59980,2470.1,2020-5-19T04:51:36Z
2020-05-19T02:53:57Z,42.805,6.029,13.2970,4.59971,2470.063,2020-5-19T04:54:39Z
2020-05-19T02:57:00Z,42.805,6.029,13.2971,4.59972,2470.04,2020-5-19T04:57:43Z
2020-05-19T03:00:04Z,42.805,6.029,13.2969,4.59971,2470.087,2020-5-19T05:00:46Z
2020-05-19T03:03:07Z,42.805,6.029,13.2971,4.59970,2470.077,2020-5-19T05:03:49Z
2020-05-19T03:06:10Z,42.805,6.029,13.2966,4.59971,2470.063,2020-5-19T05:06:52Z
2020-05-19T03:09:13Z,42.805,6.029,13.2968,4.59970,2470.063,2020-5-19T05:09:56Z
2020-05-19T03:12:17Z,42.805,6.029,13.2970,4.59971,2470.063,2020-5-19T05:12:59Z
2020-05-19T03:15:20Z,42.805,6.029,13.2969,4.59970,2470.04,2020-5-19T05:16:02Z
2020-05-19T03:18:23Z,42.805,6.029,13.2968,4.59972,2470.063,2020-5-19T05:19:05Z
2020-05-19T03:21:26Z,42.805,6.029,13.2970,4.59971,2470.077,2020-5-19T05:22:08Z
2020-05-19T03:24:29Z,42.805,6.029,13.2968,4.59970,2470.053,2020-5-19T05:25:12Z
2020-05-19T03:27:33Z,42.805,6.029,13.2963,4.59970,2470.087,2020-5-19T05:28:15Z
2020-05-19T03:30:36Z,42.805,6.029,13.2971,4.59971,2470.077,2020-5-19T05:31:18Z
2020-05-19T03:33:39Z,42.805,6.029,13.2974,4.59971,2470.077,2020-5-19T05:34:22Z
2020-05-19T03:36:43Z,42.805,6.029,13.2969,4.59970,2470.087,2020-5-19T05:37:25Z
2020-05-19T03:39:46Z,42.805,6.029,13.2970,4.59971,2470.1,2020-5-19T05:40:28Z
2020-05-19T03:42:49Z,42.805,6.029,13.2970,4.59970,2470.087,2020-5-19T05:43:31Z
2020-05-19T03:45:52Z,42.805,6.029,13.2967,4.59969,2470.063,2020-5-19T05:46:35Z
2020-05-19T03:48:56Z,42.805,6.029,13.2971,4.59971,2470.063,2020-5-19T05:49:38Z
2020-05-19T03:51:59Z,42.805,6.029,13.2968,4.59970,2470.1,2020-5-19T05:52:41Z
2020-05-19T03:55:02Z,42.805,6.029,13.2968,4.59972,2470.124,2020-5-19T05:55:44Z
2020-05-19T03:58:05Z,42.805,6.029,13.2968,4.59971,2470.087,2020-5-19T05:58:48Z
2020-05-19T04:01:09Z,42.805,6.029,13.2969,4.59970,2470.063,2020-5-19T06:01:51Z
2020-05-19T04:04:12Z,42.805,6.029,13.2970,4.59970,2470.087,2020-5-19T06:04:54Z
2020-05-19T04:07:15Z,42.805,6.029,13.2964,4.59971,2470.087,2020-5-19T06:07:57Z
2020-05-19T04:10:18Z,42.805,6.029,13.2968,4.59969,2470.11,2020-5-19T06:11:01Z
2020-05-19T04:13:22Z,42.805,6.029,13.2975,4.59970,2470.1,2020-5-19T06:14:04Z
2020-05-19T04:16:25Z,42.805,6.029,13.2967,4.59969,2470.087,2020-5-19T06:17:07Z
2020-05-19T04:19:28Z,42.805,6.029,13.2970,4.59970,2470.1,2020-5-19T06:20:10Z
2020-05-19T04:22:31Z,42.805,6.029,13.2967,4.59972,2470.087,2020-5-19T06:23:14Z
2020-05-19T04:25:35Z,42.805,6.029,13.2968,4.59973,2470.087,2020-5-19T06:26:17Z
2020-05-19T04:28:38Z,42.805,6.029,13.2974,4.59970,2470.124,2020-5-19T06:29:20Z
2020-05-19T04:31:41Z,42.805,6.029,13.2969,4.59969,2470.1,2020-5-19T06:32:23Z
2020-05-19T04:34:44Z,42.805,6.029,13.2968,4.59971,2470.124,2020-5-19T06:35:26Z
2020-05-19T04:37:47Z,42.805,6.029,13.2970,4.59970,2470.11,2020-5-19T06:38:30Z
2020-05-19T04:40:51Z,42.805,6.029,13.2969,4.59970,2470.11,2020-5-19T06:41:33Z
2020-05-19T04:43:54Z,42.805,6.029,13.2969,4.59973,2470.11,2020-5-19T06:44:36Z
2020-05-19T04:46:57Z,42.805,6.029,13.2969,4.59970,2470.133,2020-5-19T06:47:39Z
2020-05-19T04:50:00Z,42.805,6.029,13.2971,4.59970,2470.11,2020-5-19T06:50:42Z
2020-05-19T04:53:03Z,42.805,6.029,13.2970,4.59970,2470.133,2020-5-19T06:53:46Z
2020-05-19T04:56:07Z,42.805,6.029,13.2969,4.59970,2470.11,2020-5-19T06:56:49Z
2020-05-19T04:59:10Z,42.805,6.029,13.2970,4.59970,2470.11,2020-5-19T06:59:52Z
2020-05-19T05:02:13Z,42.805,6.029,13.2968,4.59969,2470.087,2020-5-19T07:02:55Z
2020-05-19T05:05:16Z,42.805,6.029,13.2971,4.59971,2470.11,2020-5-19T07:05:59Z
2020-05-19T05:08:20Z,42.805,6.029,13.2968,4.59970,2470.124,2020-5-19T07:09:02Z
2020-05-19T05:11:23Z,42.805,6.029,13.2970,4.59971,2470.11,2020-5-19T07:12:05Z
2020-05-19T05:14:26Z,42.805,6.029,13.2971,4.59972,2470.11,2020-5-19T07:15:08Z
2020-05-19T05:17:29Z,42.805,6.029,13.2971,4.59972,2470.11,2020-5-19T07:18:12Z
2020-05-19T05:20:33Z,42.805,6.029,13.2969,4.59971,2470.147,2020-5-19T07:21:15Z
2020-05-19T05:23:36Z,42.805,6.029,13.2972,4.59972,2470.124,2020-5-19T07:24:18Z
2020-05-19T05:26:39Z,42.805,6.029,13.2968,4.59972,2470.073,2020-5-19T07:27:21Z
2020-05-19T05:29:42Z,42.805,6.029,13.2973,4.59971,2470.11,2020-5-19T07:30:25Z
2020-05-19T05:32:46Z,42.805,6.029,13.2968,4.59976,2470.147,2020-5-19T07:33:28Z
2020-05-19T05:35:49Z,42.805,6.029,13.2968,4.59971,2470.147,2020-5-19T07:36:31Z
2020-05-19T05:38:52Z,42.805,6.029,13.2968,4.59972,2470.133,2020-5-19T07:39:35Z
2020-05-19T05:41:56Z,42.805,6.029,13.2970,4.59971,2470.11,2020-5-19T07:42:38Z
2020-05-19T05:44:59Z,42.805,6.029,13.2967,4.59971,2470.1,2020-5-19T07:45:41Z
2020-05-19T05:48:02Z,42.805,6.029,13.2968,4.59972,2470.147,2020-5-19T07:48:44Z
2020-05-19T05:51:05Z,42.805,6.029,13.2971,4.59974,2470.11,2020-5-19T07:51:47Z
2020-05-19T05:54:08Z,42.805,6.029,13.2971,4.59976,2470.133,2020-5-19T07:54:51Z
2020-05-19T05:57:12Z,42.805,6.029,13.2967,4.59971,2470.11,2020-5-19T07:57:54Z
2020-05-19T06:00:15Z,42.805,6.029,13.2968,4.59970,2470.087,2020-5-19T08:00:57Z
2020-05-19T06:03:18Z,42.805,6.029,13.2968,4.59973,2470.087,2020-5-19T08:04:00Z
2020-05-19T06:06:21Z,42.805,6.029,13.2971,4.59973,2470.124,2020-5-19T08:07:04Z
2020-05-19T06:09:25Z,42.805,6.029,13.2970,4.59972,2470.087,2020-5-19T08:10:07Z
2020-05-19T06:12:28Z,42.805,6.029,13.2971,4.59972,2470.087,2020-5-19T08:13:10Z
2020-05-19T06:15:31Z,42.805,6.029,13.2969,4.59970,2470.124,2020-5-19T08:16:13Z
2020-05-19T06:18:34Z,42.805,6.029,13.2969,4.59972,2470.133,2020-5-19T08:19:17Z
2020-05-19T06:21:38Z,42.805,6.029,13.2970,4.59973,2470.087,2020-5-19T08:22:20Z
2020-05-19T06:24:41Z,42.805,6.029,13.2969,4.59971,2470.1,2020-5-19T08:25:23Z
2020-05-19T06:27:44Z,42.805,6.029,13.2968,4.59973,2470.124,2020-5-19T08:28:27Z
2020-05-19T06:30:48Z,42.805,6.029,13.2968,4.59970,2470.124,2020-5-19T08:31:30Z
2020-05-19T06:33:51Z,42.805,6.029,13.2966,4.59970,2470.087,2020-5-19T08:34:33Z
2020-05-19T06:36:54Z,42.805,6.029,13.2966,4.59971,2470.11,2020-5-19T08:37:36Z
2020-05-19T06:39:57Z,42.805,6.029,13.2971,4.59971,2470.087,2020-5-19T08:40:40Z
2020-05-19T06:43:01Z,42.805,6.029,13.2971,4.59972,2470.124,2020-5-19T08:43:43Z
2020-05-19T06:46:04Z,42.805,6.029,13.2971,4.59971,2470.063,2020-5-19T08:46:46Z
2020-05-19T06:49:07Z,42.805,6.029,13.2968,4.59973,2470.1,2020-5-19T08:49:49Z
2020-05-19T06:52:10Z,42.805,6.029,13.2972,4.59970,2470.087,2020-5-19T08:52:53Z
2020-05-19T06:55:14Z,42.805,6.029,13.2972,4.59972,2470.087,2020-5-19T08:55:56Z
2020-05-19T06:58:17Z,42.805,6.029,13.2969,4.59971,2470.11,2020-5-19T08:58:59Z
2020-05-19T07:01:20Z,42.805,6.029,13.2980,4.59974,2470.087,2020-5-19T09:02:02Z
2020-05-19T07:04:23Z,42.805,6.029,13.2983,4.59981,2470.1,2020-5-19T09:05:05Z
2020-05-19T07:07:26Z,42.805,6.029,13.2983,4.59972,2470.1,2020-5-19T09:08:09Z
2020-05-19T07:10:30Z,42.805,6.029,13.2972,4.59974,2470.063,2020-5-19T09:11:12Z
2020-05-19T07:13:33Z,42.805,6.029,13.2969,4.59975,2470.1,2020-5-19T09:14:15Z
2020-05-19T07:16:36Z,42.805,6.029,13.2968,4.59974,2470.053,2020-5-19T09:17:19Z
2020-05-19T07:19:39Z,42.805,6.029,13.2970,4.59973,2470.053,2020-5-19T09:20:22Z
2020-05-19T07:22:43Z,42.805,6.029,13.2973,4.59978,2470.053,2020-5-19T09:23:25Z
2020-05-19T07:25:46Z,42.805,6.029,13.2991,4.60001,2470.077,2020-5-19T09:26:28Z
2020-05-19T07:28:49Z,42.805,6.029,13.2982,4.59978,2470.063,2020-5-19T09:29:31Z
2020-05-19T07:31:52Z,42.805,6.029,13.2968,4.59975,2470.077,2020-5-19T09:32:35Z
2020-05-19T07:34:56Z,42.805,6.029,13.2971,4.59976,2470.063,2020-5-19T09:35:38Z
2020-05-19T07:37:59Z,42.805,6.029,13.2996,4.60001,2470.077,2020-5-19T09:38:41Z
2020-05-19T07:41:02Z,42.805,6.029,13.2979,4.59978,2470.063,2020-5-19T09:41:45Z
2020-05-19T07:44:06Z,42.805,6.029,13.2993,4.60011,2470.063,2020-5-19T09:44:48Z
2020-05-19T07:47:09Z,42.805,6.029,13.2976,4.59978,2470.077,2020-5-19T09:47:51Z
2020-05-19T07:50:12Z,42.805,6.029,13.2971,4.59978,2470.077,2020-5-19T09:50:54Z
2020-05-19T07:53:15Z,42.805,6.029,13.2987,4.59983,2470.087,2020-5-19T09:53:58Z
2020-05-19T07:56:18Z,42.805,6.029,13.2987,4.60033,2470.049,2020-5-19T09:57:01Z
2020-05-19T07:59:22Z,42.805,6.029,13.3000,4.60000,2470.1,2020-5-19T10:00:04Z
2020-05-19T08:02:25Z,42.805,6.029,13.2996,4.60003,2470.017,2020-5-19T10:03:07Z
2020-05-19T08:05:28Z,42.805,6.029,13.2981,4.60000,2470.03,2020-5-19T10:06:11Z
2020-05-19T08:08:32Z,42.805,6.029,13.2998,4.60002,2470.087,2020-5-19T10:09:14Z
2020-05-19T08:11:35Z,42.805,6.029,13.2984,4.59978,2470.03,2020-5-19T10:12:17Z
2020-05-19T08:14:38Z,42.805,6.029,13.2996,4.60046,2470.017,2020-5-19T10:15:21Z
2020-05-19T08:17:42Z,42.805,6.029,13.2986,4.60011,2470.053,2020-5-19T10:18:24Z
2020-05-19T08:20:45Z,42.805,6.029,13.2991,4.59988,2470.017,2020-5-19T10:21:27Z
2020-05-19T08:23:48Z,42.805,6.029,13.2998,4.60024,2470.04,2020-5-19T10:24:30Z
2020-05-19T08:26:51Z,42.805,6.029,13.3006,4.60042,2470.017,2020-5-19T10:27:34Z
2020-05-19T08:29:55Z,42.805,6.029,13.2990,4.60031,2470.04,2020-5-19T10:30:37Z
2020-05-19T08:32:58Z,42.805,6.029,13.2995,4.60046,2470.017,2020-5-19T10:33:40Z
2020-05-19T08:36:01Z,42.805,6.029,13.2998,4.60065,2470.053,2020-5-19T10:36:43Z
2020-05-19T08:39:04Z,42.805,6.029,13.2995,4.60008,2470.03,2020-5-19T10:39:47Z
2020-05-19T08:42:08Z,42.805,6.029,13.3004,4.60024,2470.063,2020-5-19T10:42:50Z
2020-05-19T08:45:11Z,42.805,6.029,13.3000,4.60013,2470.077,2020-5-19T10:45:53Z
2020-05-19T08:48:14Z,42.805,6.029,13.2990,4.60010,2470.03,2020-5-19T10:48:56Z
2020-05-19T08:51:17Z,42.805,6.029,13.2994,4.60048,2470.007,2020-5-19T10:52:00Z
2020-05-19T08:54:21Z,42.805,6.029,13.2997,4.60041,2470.007,2020-5-19T10:55:03Z
2020-05-19T08:57:24Z,42.805,6.029,13.2985,4.60033,2470.053,2020-5-19T10:58:06Z
2020-05-19T09:00:27Z,42.805,6.029,13.2979,4.60045,2470.03,2020-5-19T11:01:09Z
2020-05-19T09:03:30Z,42.805,6.029,13.2995,4.60043,2470.053,2020-5-19T11:04:12Z
2020-05-19T09:06:33Z,42.805,6.029,13.2990,4.60053,2470.03,2020-5-19T11:07:16Z
2020-05-19T09:09:37Z,42.805,6.029,13.2989,4.60026,2470.03,2020-5-19T11:10:19Z
2020-05-19T09:12:40Z,42.805,6.029,13.2987,4.60030,2469.993,2020-5-19T11:13:22Z
2020-05-19T09:15:43Z,42.805,6.029,13.2977,4.60033,2469.979,2020-5-19T11:16:25Z
2020-05-19T09:18:46Z,42.805,6.029,13.2985,4.60029,2470.017,2020-5-19T11:19:29Z
2020-05-19T09:21:50Z,42.805,6.029,13.2991,4.60040,2470.017,2020-5-19T11:22:32Z
2020-05-19T09:24:53Z,42.805,6.029,13.2983,4.60042,2470.03,2020-5-19T11:25:35Z
2020-05-19T09:27:56Z,42.805,6.029,13.2984,4.60052,2470.04,2020-5-19T11:28:38Z
2020-05-19T09:30:59Z,42.805,6.029,13.2998,4.60050,2469.993,2020-5-19T11:31:41Z
2020-05-19T09:34:02Z,42.805,6.029,13.2997,4.60050,2469.993,2020-5-19T11:34:45Z
2020-05-19T09:37:06Z,42.805,6.029,13.2991,4.60041,2469.993,2020-5-19T11:37:48Z
2020-05-19T09:40:09Z,42.805,6.029,13.3020,4.60033,2470.04,2020-5-19T11:40:51Z
2020-05-19T09:43:12Z,42.805,6.029,13.3002,4.60028,2469.993,2020-5-19T11:43:54Z
2020-05-19T09:46:15Z,42.805,6.029,13.2981,4.60062,2469.984,2020-5-19T11:46:58Z
2020-05-19T09:49:18Z,42.805,6.029,13.2990,4.60068,2469.984,2020-5-19T11:50:01Z
2020-05-19T09:52:22Z,42.805,6.029,13.2989,4.60027,2469.97,2020-5-19T11:53:04Z
2020-05-19T09:55:25Z,42.805,6.029,13.2996,4.60041,2469.984,2020-5-19T11:56:07Z
2020-05-19T09:58:28Z,42.805,6.029,13.2993,4.60002,2469.993,2020-5-19T11:59:11Z
2020-05-19T10:01:32Z,42.805,6.029,13.2991,4.60001,2469.993,2020-5-19T12:02:14Z
2020-05-19T10:04:35Z,42.805,6.029,13.2994,4.60062,2469.993,2020-5-19T12:05:17Z
2020-05-19T10:07:38Z,42.805,6.029,13.3005,4.60007,2470.007,2020-5-19T12:08:20Z
2020-05-19T10:10:41Z,42.805,6.029,13.2991,4.60087,2469.96,2020-5-19T12:11:24Z
2020-05-19T10:13:45Z,42.805,6.029,13.3001,4.60006,2469.947,2020-5-19T12:14:27Z
2020-05-19T10:16:48Z,42.805,6.029,13.3007,4.60028,2469.947,2020-5-19T12:17:30Z
2020-05-19T10:19:51Z,42.805,6.029,13.3000,4.60060,2470.017,2020-5-19T12:20:33Z
2020-05-19T10:22:55Z,42.805,6.029,13.2998,4.60072,2469.993,2020-5-19T12:23:37Z
2020-05-19T10:25:58Z,42.805,6.029,13.2984,4.60042,2469.96,2020-5-19T12:26:40Z
2020-05-19T10:29:01Z,42.805,6.029,13.3006,4.60052,2469.947,2020-5-19T12:29:43Z
2020-05-19T10:32:04Z,42.805,6.029,13.3006,4.60003,2469.984,2020-5-19T12:32:47Z
2020-05-19T10:35:08Z,42.805,6.029,13.2989,4.60058,2469.96,2020-5-19T12:35:50Z
2020-05-19T10:38:11Z,42.805,6.029,13.3005,4.60010,2469.97,2020-5-19T12:38:53Z
2020-05-19T10:41:14Z,42.805,6.029,13.2996,4.60004,2469.923,2020-5-19T12:41:56Z
2020-05-19T10:44:17Z,42.805,6.029,13.2991,4.60045,2469.96,2020-5-19T12:45:00Z
2020-05-19T10:47:21Z,42.805,6.029,13.3003,4.60036,2469.96,2020-5-19T12:48:03Z
2020-05-19T10:50:24Z,42.805,6.029,13.3031,4.59996,2469.947,2020-5-19T12:51:06Z
2020-05-19T10:53:27Z,42.805,6.029,13.3023,4.60026,2469.96,2020-5-19T12:54:09Z
2020-05-19T10:56:30Z,42.805,6.029,13.3036,4.60028,2469.96,2020-5-19T12:57:13Z
2020-05-19T10:59:34Z,42.805,6.029,13.3027,4.60121,2469.96,2020-5-19T13:00:16Z
2020-05-19T11:02:37Z,42.805,6.029,13.3045,4.60038,2469.96,2020-5-19T13:03:19Z
2020-05-19T11:05:40Z,42.805,6.029,13.3046,4.60039,2469.923,2020-5-19T13:06:22Z
2020-05-19T11:08:43Z,42.805,6.029,13.3039,4.59995,2469.923,2020-5-19T13:09:26Z
2020-05-19T11:11:47Z,42.805,6.029,13.3009,4.60007,2469.937,2020-5-19T13:12:29Z
2020-05-19T11:14:50Z,42.805,6.029,13.3029,4.60031,2469.96,2020-5-19T13:15:32Z
2020-05-19T11:17:53Z,42.805,6.029,13.2993,4.60029,2469.923,2020-5-19T13:18:36Z
2020-05-19T11:20:57Z,42.805,6.029,13.3021,4.60052,2469.984,2020-5-19T13:21:39Z
2020-05-19T11:24:00Z,42.805,6.029,13.3044,4.60033,2469.993,2020-5-19T13:24:42Z
2020-05-19T11:27:03Z,42.805,6.029,13.3031,4.60028,2469.923,2020-5-19T13:27:45Z
2020-05-19T11:30:06Z,42.805,6.029,13.3058,4.60044,2469.947,2020-5-19T13:30:49Z
2020-05-19T11:33:09Z,42.805,6.029,13.3027,4.60025,2469.96,2020-5-19T13:33:52Z
2020-05-19T11:36:13Z,42.805,6.029,13.3037,4.60005,2469.96,2020-5-19T13:36:55Z
2020-05-19T11:39:16Z,42.805,6.029,13.3036,4.60014,2469.96,2020-5-19T13:39:59Z
2020-05-19T11:42:19Z,42.805,6.029,13.3032,4.60032,2469.96,2020-5-19T13:43:02Z
2020-05-19T11:45:23Z,42.805,6.029,13.3011,4.60003,2469.97,2020-5-19T13:46:05Z
2020-05-19T11:48:26Z,42.805,6.029,13.3020,4.60046,2469.937,2020-5-19T13:49:08Z
2020-05-19T11:51:29Z,42.805,6.029,13.2996,4.60026,2469.947,2020-5-19T13:52:12Z
2020-05-19T11:54:32Z,42.805,6.029,13.3009,4.60035,2469.947,2020-5-19T13:55:15Z
2020-05-19T11:57:36Z,42.805,6.029,13.3012,4.60001,2469.96,2020-5-19T13:58:18Z
2020-05-19T12:00:39Z,42.805,6.029,13.3017,4.60070,2469.923,2020-5-19T14:01:21Z
2020-05-19T12:03:43Z,42.805,6.029,13.3024,4.60036,2469.96,2020-5-19T14:04:25Z
2020-05-19T12:06:46Z,42.805,6.029,13.3005,4.60025,2469.937,2020-5-19T14:07:28Z
2020-05-19T12:09:49Z,42.805,6.029,13.3017,4.60003,2469.947,2020-5-19T14:10:31Z
2020-05-19T12:12:52Z,42.805,6.029,13.3011,4.59998,2469.937,2020-5-19T14:13:35Z
2020-05-19T12:15:55Z,42.805,6.029,13.2993,4.60034,2469.96,2020-5-19T14:16:38Z
2020-05-19T12:18:59Z,42.805,6.029,13.2999,4.60021,2469.947,2020-5-19T14:19:41Z
2020-05-19T12:22:02Z,42.805,6.029,13.3006,4.60014,2469.947,2020-5-19T14:22:44Z
2020-05-19T12:25:05Z,42.805,6.029,13.3001,4.60009,2469.97,2020-5-19T14:25:47Z
2020-05-19T12:28:08Z,42.805,6.029,13.3012,4.60015,2469.923,2020-5-19T14:28:51Z
2020-05-19T12:31:12Z,42.805,6.029,13.3046,4.60047,2469.937,2020-5-19T14:31:54Z
2020-05-19T12:34:15Z,42.805,6.029,13.3038,4.60014,2469.923,2020-5-19T14:34:57Z
2020-05-19T12:37:18Z,42.805,6.029,13.3039,4.60001,2469.96,2020-5-19T14:38:01Z
2020-05-19T12:40:22Z,42.805,6.029,13.3010,4.60003,2469.923,2020-5-19T14:41:04Z
2020-05-19T12:43:25Z,42.805,6.029,13.3034,4.60014,2469.96,2020-5-19T14:44:07Z
2020-05-19T12:46:28Z,42.805,6.029,13.3028,4.60038,2469.984,2020-5-19T14:47:10Z
2020-05-19T12:49:31Z,42.805,6.029,13.3028,4.60017,2469.914,2020-5-19T14:50:13Z
2020-05-19T12:52:34Z,42.805,6.029,13.3027,4.60004,2469.937,2020-5-19T14:53:17Z
2020-05-19T12:55:38Z,42.805,6.029,13.3062,4.60011,2469.933,2020-5-19T14:56:20Z
2020-05-19T12:58:41Z,42.805,6.029,13.3011,4.60013,2469.96,2020-5-19T14:59:23Z
2020-05-19T13:01:44Z,42.805,6.029,13.3006,4.60009,2469.96,2020-5-19T15:02:26Z
2020-05-19T13:04:47Z,42.805,6.029,13.3029,4.60026,2469.96,2020-5-19T15:05:30Z
2020-05-19T13:07:51Z,42.805,6.029,13.3042,4.60001,2469.984,2020-5-19T15:08:33Z
2020-05-19T13:10:54Z,42.805,6.029,13.3011,4.60013,2469.984,2020-5-19T15:11:36Z
2020-05-19T13:13:57Z,42.805,6.029,13.3018,4.60003,2469.984,2020-5-19T15:14:39Z
2020-05-19T13:17:00Z,42.805,6.029,13.3015,4.59999,2469.923,2020-5-19T15:17:42Z
2020-05-19T13:20:03Z,42.805,6.029,13.3006,4.60013,2469.984,2020-5-19T15:20:46Z
2020-05-19T13:23:07Z,42.805,6.029,13.3012,4.60015,2469.97,2020-5-19T15:23:49Z
2020-05-19T13:26:10Z,42.805,6.029,13.3043,4.60005,2469.984,2020-5-19T15:26:52Z
2020-05-19T13:29:13Z,42.805,6.029,13.3017,4.59999,2469.993,2020-5-19T15:29:55Z
2020-05-19T13:32:16Z,42.805,6.029,13.3010,4.60008,2469.984,2020-5-19T15:32:59Z
2020-05-19T13:35:20Z,42.805,6.029,13.3019,4.60011,2469.96,2020-5-19T15:36:02Z
2020-05-19T13:38:23Z,42.805,6.029,13.3021,4.60003,2469.96,2020-5-19T15:39:05Z
2020-05-19T13:41:26Z,42.805,6.029,13.3014,4.60006,2469.993,2020-5-19T15:42:08Z
2020-05-19T13:44:29Z,42.805,6.029,13.3011,4.60014,2469.97,2020-5-19T15:45:12Z
2020-05-19T13:47:33Z,42.805,6.029,13.3027,4.60004,2469.947,2020-5-19T15:48:15Z
2020-05-19T13:50:36Z,42.805,6.029,13.3015,4.60015,2470.007,2020-5-19T15:51:18Z
2020-05-19T13:53:39Z,42.805,6.029,13.3015,4.60024,2470.007,2020-5-19T15:54:22Z
2020-05-19T13:56:42Z,42.805,6.029,13.3019,4.60029,2469.993,2020-5-19T15:57:25Z
2020-05-19T13:59:46Z,42.805,6.029,13.3014,4.60005,2469.97,2020-5-19T16:00:28Z
2020-05-19T14:02:49Z,42.805,6.029,13.3011,4.60012,2470.007,2020-5-19T16:03:31Z
2020-05-19T14:05:52Z,42.805,6.029,13.3013,4.60009,2469.97,2020-5-19T16:06:34Z
2020-05-19T14:08:56Z,42.805,6.029,13.3019,4.60007,2469.993,2020-5-19T16:09:38Z
2020-05-19T14:11:59Z,42.805,6.029,13.2986,4.60013,2469.984,2020-5-19T16:12:41Z
2020-05-19T14:15:02Z,42.805,6.029,13.2986,4.60016,2469.984,2020-5-19T16:15:45Z
2020-05-19T14:18:05Z,42.805,6.029,13.2983,4.60010,2469.984,2020-5-19T16:18:48Z
2020-05-19T14:21:09Z,42.805,6.029,13.2978,4.60020,2469.993,2020-5-19T16:21:51Z
2020-05-19T14:24:12Z,42.805,6.029,13.2969,4.60019,2469.97,2020-5-19T16:24:54Z
2020-05-19T14:27:15Z,42.805,6.029,13.2977,4.59995,2469.956,2020-5-19T16:27:57Z
2020-05-19T14:30:18Z,42.805,6.029,13.2976,4.60003,2470.007,2020-5-19T16:31:01Z
2020-05-19T14:33:22Z,42.805,6.029,13.2971,4.60005,2469.993,2020-5-19T16:34:04Z
2020-05-19T14:36:25Z,42.805,6.029,13.2973,4.59988,2470.04,2020-5-19T16:37:07Z
2020-05-19T14:39:28Z,42.805,6.029,13.2971,4.59987,2469.993,2020-5-19T16:40:11Z
2020-05-19T14:42:31Z,42.805,6.029,13.2970,4.59984,2470.007,2020-5-19T16:43:14Z
2020-05-19T14:45:35Z,42.805,6.029,13.2971,4.59986,2470.017,2020-5-19T16:46:17Z
2020-05-19T14:48:38Z,42.805,6.029,13.2974,4.59988,2470.04,2020-5-19T16:49:20Z
2020-05-19T14:51:41Z,42.805,6.029,13.2973,4.59983,2469.993,2020-5-19T16:52:23Z
2020-05-19T14:54:44Z,42.805,6.029,13.2969,4.59979,2470.04,2020-5-19T16:55:27Z
2020-05-19T14:57:48Z,42.805,6.029,13.2973,4.59979,2470.03,2020-5-19T16:58:30Z
2020-05-19T15:00:51Z,42.805,6.029,13.2974,4.59983,2470.017,2020-5-19T17:01:33Z
2020-05-19T15:03:54Z,42.805,6.029,13.2968,4.59977,2470.03,2020-5-19T17:04:36Z
2020-05-19T15:06:57Z,42.805,6.029,13.2970,4.59980,2470.053,2020-5-19T17:07:39Z
2020-05-19T15:10:00Z,42.805,6.029,13.2973,4.59981,2470.03,2020-5-19T17:10:43Z
2020-05-19T15:13:04Z,42.805,6.029,13.2965,4.59981,2470.017,2020-5-19T17:13:46Z
2020-05-19T15:16:07Z,42.805,6.029,13.2971,4.59983,2470.053,2020-5-19T17:16:49Z